This is the latest recevied weather packets stored in our database for station/object K5SVV. If no packets are shown the sender has not sent any weather packets the latest 10 day(s).
| Time | Temp. | Humidity | Pressure | Rain* | Wind** | Luminosity | Snow |
|---|---|---|---|---|---|---|---|
| 1788225511 | 32.22° C | 41% | 1013.1 hPa | 0 mm | - | 0 W/m² | - |
| 1788225207 | 32.22° C | 41% | 1013.2 hPa | 0 mm | - | 0 W/m² | - |
| 1788224905 | 32.78° C | 40% | 1013.2 hPa | 0 mm | - | 0 W/m² | - |
| 1788224601 | 32.78° C | 39% | 1013.2 hPa | 0 mm | - | 0 W/m² | - |
| 1788224299 | 33.33° C | 39% | 1013 hPa | 0 mm | - | 0 W/m² | - |
| 1788223995 | 33.33° C | 38% | 1013.2 hPa | 0 mm | - | 2 W/m² | - |
| 1788223695 | 33.89° C | 38% | 1013.2 hPa | 0 mm | - | 4 W/m² | - |
| 1788223389 | 33.89° C | 37% | 1013.2 hPa | 0 mm | - | 8 W/m² | - |
| 1788223088 | 34.44° C | 37% | 1013.1 hPa | 0 mm | - | 12 W/m² | - |
| 1788222784 | 34.44° C | 38% | 1013 hPa | 0 mm | - | 16 W/m² | - |
| 1788222482 | 35° C | 38% | 1013 hPa | 0 mm | - | 20 W/m² | - |
| 1788222178 | 35° C | 37% | 1013.1 hPa | 0 mm | - | 24 W/m² | - |
| 1788221872 | 35° C | 37% | 1012.9 hPa | 0 mm | - | 29 W/m² | - |
| 1788221568 | 35.56° C | 36% | 1013.1 hPa | 0 mm | - | 32 W/m² | - |
| 1788221263 | 35.56° C | 36% | 1012.8 hPa | 0 mm | - | 37 W/m² | - |
| 1788220959 | 35.56° C | 36% | 1013.1 hPa | 0 mm | - | 40 W/m² | - |
| 1788220658 | 36.11° C | 36% | 1013 hPa | 0 mm | - | 52 W/m² | - |
| 1788220354 | 36.11° C | 35% | 1012.9 hPa | 0 mm | - | 64 W/m² | - |
| 1788220054 | 36.11° C | 35% | 1013.1 hPa | 0 mm | - | 50 W/m² | - |
| 1788219753 | 36.67° C | 35% | 1013.1 hPa | 0 mm | - | 54 W/m² | - |
| 1788219449 | 36.67° C | 35% | 1013.1 hPa | 0 mm | - | 69 W/m² | - |
| 1788219144 | 36.67° C | 35% | 1012.6 hPa | 0 mm | - | 76 W/m² | - |
| 1788218844 | 36.67° C | 36% | 1013 hPa | 0 mm | - | 79 W/m² | - |
| 1788218540 | 37.22° C | 35% | 1013.2 hPa | 0 mm | - | 72 W/m² | - |
| 1788218236 | 36.67° C | 35% | 1013 hPa | 0 mm | - | 150 W/m² | - |
* Rain latest hour (hover to see other rain measurements)
** Current wind speed in m/s (hover to see current wind gust speed)